Flag for Costa Rica Weather past 2 weeks in San Jose, Costa Rica

Now
66 °F

Clear.


Feels Like: 66 °F
Forecast: 66 / 74 °F
Wind: 3 mph from Northeast

Location: Juan Santamaria

Current Time: May 26, 2015 at 5:01:33 AM

Latest Report: May 26, 2015 at 4:00 AM


Visibility: 10 mi

Pressure: 29.99 "Hg

Humidity: 83%

Dew point: 61 °F

Location of San JoseLocation

Historic Weather in San Jose — Graph

°F

San Jose temperature yesterday

Maximum temperature yesterday: 84 °F (at 11:00 AM)
Minimum temperature yesterday: 68 °F (at 12:00 AM)
Average temperature yesterday: 73 °F

Past Weeks' High & Low Weather Summary

 TemperatureHumidityPressure
High88 °F (May 11, 1:00 PM)94% (May 16, 2:00 PM)30.11 "Hg (May 16, 2:00 PM)
Low64 °F (May 16, 9:00 PM)35% (May 15, 1:00 PM)27.71 "Hg (May 17, 2:00 PM)
Average75 °F68%30.00 "Hg
* Reported May 11 4:00 AM — May 26 4:00 AM, San Jose, Weather by CustomWeather, © 2015

Note: Actual official high and low records may vary slightly from our data, if they occured in-between our weather recording intervals... More about our weather records

Advertising

San Jose weather history for previous 24 hours

 ConditionsComfort  
Time TempWeatherWind HumidityBarometerVisibility
4:00 AM
Tue, May 26
66 °FClear.3 mph83%29.99 "Hg10 mi
3:00 AM70 °FClear.5 mph73%29.98 "Hg10 mi
2:00 AM72 °FClear.7 mph69%29.98 "Hg10 mi
1:00 AM72 °FClear.12 mph69%29.99 "Hg10 mi
12:00 AM72 °FClear.14 mph69%30.01 "Hg10 mi
11:00 PM
Mon, May 25
72 °FClear.10 mph73%30.03 "Hg10 mi
10:00 PM70 °FPassing clouds.3 mph88%30.06 "HgN/A
9:00 PM70 °FPassing clouds.3 mph88%30.06 "HgN/A
8:00 PM72 °FPassing clouds.No wind83%30.04 "HgN/A
7:00 PM72 °FPartly cloudy.2 mph88%30.02 "HgN/A
6:00 PM72 °FPartly cloudy.2 mph88%30.03 "HgN/A
5:00 PM72 °FRain. Broken clouds.3 mph88%30.00 "HgN/A
4:00 PM72 °FLight rain. Broken clouds.2 mph83%29.98 "HgN/A
3:00 PM73 °FScattered showers. Broken clouds.7 mph74%29.99 "HgN/A
2:00 PM75 °FScattered showers. Partly sunny.9 mph69%29.99 "HgN/A
1:00 PM82 °FScattered showers. Partly sunny.10 mph62%29.99 "HgN/A
12:00 PM82 °FScattered clouds.7 mph62%30.01 "HgN/A
11:00 AM84 °FPartly sunny.7 mph51%30.02 "HgN/A
10:00 AM81 °FPartly sunny.9 mph58%30.04 "HgN/A
9:00 AM77 °FSunny.13 mph65%30.05 "Hg10 mi
8:00 AM75 °FScattered clouds.9 mph69%30.04 "HgN/A
7:00 AM73 °FScattered clouds.9 mph69%30.04 "HgN/A
6:00 AM70 °FBroken clouds.10 mph78%30.01 "HgN/A
5:00 AM70 °FPassing clouds.8 mph83%29.98 "HgN/A
Weather by CustomWeather, © 2015

See weather overviewHow to use our weather pages